CAPE
7 0 3 18 27 28 20 14 19 11 7 29 6 10 7 0 0 0 8 0 0 0 0 0 0 0 0 0 0 0 0 0 0 0 0 0 0 0 0 0 0 0 0 0
0 0 0 0 0 0 0 1 8 6 1 0 3 0 0 0 0 0 0 0 0 0 0 0 0 0 0 0 0 0 0 0 0 0 0 0 0 0 0 0 0 0 0 0
5 13 5 0 0 0 0 0 0 0 2 0 0 0 0 0 0 0 0 0 0 0 0 0 0 0 0 0 0 0 0 0 0 0 0 0 0 0 0 0 0 0 0 0
8 13 0 0 0 0 0 0 1 0 0 0 0 0 0 0 0 0 0 0 0 0 0 0 0 0 0 0 0 0 0 0 0 0 0 0 0 0 0 0 0 0 0 0
0 0 0 0 0 0 0 0 0 0 0 0 0 0 0 0 0 0 0 0 0 0 0 0 0 0 0 0 0 0 0 0 0 0 0 0 0 0 0 0 0 0 0 0
0 0 0 0 0 0 0 0 0 0 0 0 0 0 0 0 0 0 0 0 0 0 0 0 0 0 0 0 0 0 0 0 0 0 0 0 0 0 0 0 0 0 0 0
2 0 0 0 0 0 0 0 0 0 0 0 0 0 0 0 0 0 0 0 0 0 0 0 0 0 0 0 0 0 0 0 0 0 0 0 0 0 0 0 0 0 0 0
5 7 0 0 0 0 0 0 0 0 0 0 0 0 0 0 0 0 0 0 0 0 0 0 0 0 0 0 0 0 0 0 0 0 0 0 0 0 0 0 0 0 0 0
0 0 0 0 0 0 0 0 0 0 0 0 0 0 0 0 0 0 0 0 0 0 0 0 0 0 0 0 0 0 0 0 0 0 0 0 0 0 0 0 0 0 0 0
8 0 0 0 0 0 0 0 0 0 0 0 0 0 0 0 0 0 0 0 0 0 0 0 0 0 0 0 0 0 0 0 0 0 0 0 0 0 0 0 0 0 0 0
0 0 1 0 0 0 1 0 0 0 0 0 0 0 0 0 1 6 0 0 0 0 0 0 0 0 0 0 0 0 0 0 0 0 0 0 0 0 0 0 0 0 0 0
0 0 0 0 0 0 0 0 0 0 0 0 0 0 0 0 1 9 12 4 0 0 0 0 0 0 0 0 0 0 0 0 0 0 0 0 0 0 0 0 0 0 0 0
2 0 0 0 0 0 0 0 0 0 0 0 0 0 1 12 15 12 4 9 0 0 0 0 0 0 0 0 0 0 0 0 0 0 0 0 0 0 0 0 0 0 0 0
0 0 0 0 0 0 0 0 0 0 0 0 0 3 10 24 16 13 18 17 14 2 0 0 0 0 0 0 0 0 0 0 0 0 0 0 0 0 0 0 0 0 0 0
1 0 0 0 0 0 0 0 0 0 0 0 4 18 18 11 7 1 0 0 0 0 0 0 0 0 0 0 0 0 0 0 0 0 0 0 0 0 0 0 0 0 0 0
0 0 0 0 0 0 0 0 0 0 0 4 0 0 0 0 0 0 0 0 0 0 0 0 0 0 0 0 0 0 0 0 0 0 0 0 0 0 0 0 0 0 0 0
0 0 0 0 0 0 0 0 0 0 0 0 0 0 0 0 0 0 0 0 0 0 0 0 0 0 0 0 0 0 0 0 0 0 0 0 0 0 0 0 0 0 0 0
0 0 0 0 0 0 0 0 0 0 0 0 0 0 0 0 0 0 0 0 0 0 0 0 0 0 0 0 0 0 0 0 0 0 0 0 0 0 0 0 0 0 0 0
0 0 0 0 0 0 0 0 0 0 0 0 0 0 0 0 0 0 0 0 0 0 0 0 0 0 0 0 0 0 0 0 0 0 0 0 0 0 0 0 0 0 0 0
0 0 0 0 0 0 0 0 0 0 0 0 0 0 0 0 0 0 0 0 0 0 0 0 0 0 0 0 0 0 0 0 0 0 0 0 0 0 0 0 0 0 0 0
0 0 0 0 0 0 0 0 0 0 0 0 0 0 0 0 0 0 0 0 0 0 0 0 0 0 0 0 0 0 0 0 0 0 0 0 0 0 0 0 0 0 0 1
0 0 0 0 0 0 0 0 0 0 0 0 0 0 0 0 0 0 0 0 0 0 0 0 0 0 0 0 0 0 0 0 0 0 0 0 0 0 0 0 1 1 2 2
0 0 0 0 0 0 0 0 0 0 0 0 0 0 0 0 0 0 0 0 0 0 0 0 0 0 0 0 0 0 1 0 0 0 0 0 0 1 1 1 1 2 2 2
0 0 0 0 0 0 0 0 0 0 0 0 0 0 0 0 0 0 0 0 0 0 0 0 0 0 0 0 0 1 0 0 0 0 0 0 2 2 1 1 1 1 2 2
0 0 0 0 0 1 6 8 0 0 0 0 0 0 0 0 0 0 0 0 0 0 0 0 0 0 1 2 0 0 0 0 0 1 0 1 1 1 1 3 2 2 3 4
0 0 0 0 4 37 42 1 0 0 0 0 0 0 0 0 0 0 0 0 0 0 1 3 4 3 0 0 0 0 0 0 0 0 1 0 2 1 2 2 2 3 4 4
0 0 0 5 45 11 0 0 0 0 0 0 0 0 0 0 0 0 0 0 0 0 2 5 1 0 1 1 0 0 0 1 0 0 0 0 1 2 3 4 5 4 5 6
CIN
-10 -6 -3 -8 -4 -3 -2 -2 -2 -4 -2 -4 -4 -3 -5 -1 0 0 -2 0 0 0 0 0 0 0 0 0 0 0 0 0 0 0 0 0 0 0 0 0 0 0 0 0
0 0 0 0 0 0 0 -3 -2 -3 -3 0 -3 0 0 0 0 0 0 0 0 0 0 0 0 0 0 0 0 0 0 0 0 0 0 0 0 0 0 0 0 0 0 0
-2 -7 -7 0 0 0 0 0 -1 0 -2 0 0 0 0 0 0 0 0 0 0 0 0 0 0 0 0 0 0 0 0 0 0 0 0 0 0 0 0 0 0 0 0 0
-4 -2 0 0 0 0 0 0 -2 0 0 0 0 0 0 0 0 0 0 0 0 0 0 0 0 0 0 0 0 0 0 0 0 0 0 0 0 0 0 0 0 0 0 0
-1 0 0 0 0 0 0 0 0 0 0 0 0 0 0 0 0 0 0 0 0 0 0 0 0 0 0 0 0 0 0 0 0 0 0 0 0 0 0 0 0 0 0 0
-1 0 0 0 0 0 0 0 0 0 0 0 0 0 0 0 0 0 0 0 0 0 0 0 0 0 0 0 0 0 0 0 0 0 0 0 0 0 0 0 0 0 0 0
-1 0 0 0 0 0 0 0 0 0 0 0 0 0 0 0 0 0 0 0 0 0 0 0 0 0 0 0 0 0 0 0 0 0 0 0 0 0 0 0 0 0 0 0
-2 -1 0 0 0 0 0 0 0 0 0 0 0 0 0 0 0 0 0 0 0 0 0 0 0 0 0 0 0 0 0 0 0 0 0 0 0 0 0 0 0 0 0 0
0 0 0 0 0 0 0 0 0 0 0 0 0 0 0 0 0 0 0 0 0 0 0 0 0 0 0 0 0 0 0 0 0 0 0 0 0 0 0 0 0 0 0 0
-1 0 0 0 0 0 0 0 0 0 0 0 0 0 0 0 -1 -1 0 0 0 0 0 0 0 0 0 0 0 0 0 0 0 0 0 0 0 0 0 0 0 0 0 0
0 0 -2 0 0 0 -2 -1 0 0 0 0 0 0 0 0 -2 -2 -2 0 0 0 0 0 0 0 0 0 0 0 0 0 0 0 0 0 0 0 0 0 0 0 0 0
0 0 0 0 0 -1 0 0 0 0 0 0 0 0 0 0 -1 -3 -3 -2 0 0 0 0 0 0 0 0 0 0 0 0 0 0 0 0 0 0 0 0 0 0 0 0
-2 0 0 0 0 0 0 0 0 0 0 0 0 0 -1 -2 -2 -1 -10 -16 0 0 0 0 0 0 0 0 0 0 0 0 0 0 0 0 0 0 0 0 0 0 0 0
0 0 0 0 0 0 0 0 0 0 0 0 0 -2 -1 -3 -2 -4 -7 -35 -37 -41 0 0 0 0 0 0 0 0 0 0 0 0 0 0 0 0 0 0 0 0 0 0
-2 0 0 0 0 0 0 0 0 0 0 0 -2 -2 -2 -2 -1 -1 -1 0 0 0 0 0 0 0 0 0 0 0 0 0 0 0 0 0 0 0 0 0 0 0 0 0
0 0 0 0 0 0 0 0 0 0 0 -1 -2 0 0 0 0 0 0 0 0 0 0 0 0 0 0 0 0 0 0 0 0 0 0 0 0 0 0 0 0 0 0 0
0 0 0 0 0 0 0 0 0 0 0 0 0 0 0 0 0 0 0 0 0 0 0 0 0 0 0 0 0 0 0 0 0 0 0 0 0 0 0 0 0 0 0 0
0 0 0 0 0 0 0 0 0 0 0 0 0 0 0 0 0 0 0 0 0 0 0 0 0 0 0 0 0 0 0 0 0 0 0 0 0 0 0 0 0 0 0 0
0 0 0 0 0 0 0 0 0 0 0 0 0 0 0 0 0 0 0 0 0 0 0 0 0 0 0 0 0 0 0 0 0 0 0 0 0 0 0 0 0 0 0 0
0 0 0 0 0 0 0 0 0 0 0 0 0 0 0 0 0 0 0 0 0 0 0 0 0 0 0 0 0 0 0 0 0 0 0 0 0 0 0 0 0 0 0 0
0 0 0 0 0 0 0 0 0 0 0 0 0 0 0 0 0 0 0 0 0 0 0 0 0 0 0 0 0 0 0 0 0 0 0 0 0 0 0 0 -1 -1 -1 -2
0 0 0 0 0 0 0 0 0 0 0 0 0 0 0 0 0 0 0 0 0 0 0 0 0 0 0 0 0 -1 0 0 0 0 0 0 0 -1 -1 -1 -1 -2 -1 -1
0 0 0 0 0 0 0 0 0 0 0 0 0 0 0 0 0 0 0 0 0 0 0 0 0 0 0 0 0 0 0 0 0 0 0 -1 -1 -1 -1 -1 -1 -1 -1 -1
0 0 0 0 0 0 0 0 0 0 0 0 0 0 0 0 0 0 0 0 0 0 0 0 0 0 0 0 0 0 0 0 0 0 0 0 0 -1 -1 -1 -1 -1 -1 -1
0 0 0 0 0 -15 -80 -164 0 0 0 0 0 0 0 0 0 0 0 0 0 0 0 0 0 0 0 0 0 0 0 0 -1 0 -1 -1 0 0 -1 0 0 0 -1 -1
0 0 0 0 -117 -109 -133 -13 0 0 0 0 0 0 0 0 0 0 0 0 0 0 0 0 0 0 0 0 0 0 0 0 0 0 0 -1 0 0 0 0 0 -1 -1 -1
0 0 0 -71 -67 -172 0 0 0 0 0 0 0 0 0 0 0 0 0 0 0 0 0 0 0 0 0 0 0 0 0 0 0 0 0 0 0 0 0 -1 -1 -1 -1 -1
Wind_Speed
13 15 16 15 17 18 22 23 23 23 23 23 26 28 24 20 18 10 4 5 7 7 6 5 4 4 2 3 2 3 6 7 11 12 14 15 16 17 17 18 20 20 21 21
22 21 22 24 25 26 27 28 29 27 28 31 26 25 20 18 14 12 7 4 7 7 8 8 6 6 4 4 4 5 6 9 11 12 14 15 16 17 18 18 19 20 20 21
24 20 23 29 28 30 32 27 26 29 29 27 28 25 20 16 14 12 11 6 5 7 8 7 7 7 6 5 4 6 7 9 10 12 14 15 16 17 18 18 19 20 20 21
23 19 26 23 22 23 25 26 22 23 23 24 26 27 25 21 19 16 14 9 5 5 6 7 6 6 6 5 6 6 8 9 10 12 14 16 16 17 18 18 19 20 20 21
23 24 27 25 18 18 18 19 15 18 19 20 22 24 19 19 20 19 17 12 8 5 4 4 5 4 5 5 6 8 9 10 11 13 15 16 17 17 17 18 20 19 20 21
20 24 26 19 13 13 17 27 15 14 15 18 21 21 20 24 23 21 18 14 10 7 4 3 3 3 4 6 7 9 9 11 12 13 15 16 16 17 17 19 19 19 20 21
20 24 25 20 11 15 23 23 12 12 14 17 22 26 27 26 24 20 17 14 10 7 5 3 2 3 6 7 9 9 10 11 12 13 15 15 16 16 17 19 18 19 21 21
21 26 32 11 8 17 18 16 14 15 16 21 24 27 26 25 24 18 15 12 10 8 7 5 4 5 7 9 9 10 10 11 12 13 14 14 15 16 17 18 19 21 22 22
16 20 17 7 12 13 20 20 15 19 24 28 31 28 27 25 24 19 14 12 10 9 9 8 7 8 9 10 9 10 11 12 12 13 14 14 15 16 18 17 20 21 22 22
18 16 16 15 16 17 16 18 22 26 30 31 31 26 27 27 23 21 16 14 13 12 11 11 10 10 11 11 10 10 11 12 13 14 14 13 14 17 17 19 20 20 20 21
20 19 19 19 19 21 24 28 30 29 27 27 27 30 30 29 25 24 21 17 15 15 15 15 13 13 13 12 11 12 12 14 14 14 13 14 14 16 16 17 18 19 19 21
25 22 24 25 25 25 27 28 27 29 32 32 32 33 30 29 27 25 23 20 18 18 18 18 16 16 15 14 13 14 14 15 15 15 13 14 16 18 17 18 19 18 19 19
26 24 26 29 28 26 30 31 32 35 33 34 31 30 29 28 25 26 24 23 20 20 20 20 20 19 18 16 15 16 16 16 15 15 12 15 17 19 20 19 17 17 17 17
24 25 27 26 27 28 31 34 33 32 32 31 31 29 29 28 28 28 27 26 25 24 23 24 24 23 19 17 17 17 17 16 14 15 13 15 18 18 19 20 20 19 15 15
23 25 28 28 29 32 31 32 34 34 34 33 31 32 32 31 32 31 30 29 28 27 27 26 25 24 20 19 19 18 18 16 14 12 14 16 16 18 18 19 19 19 19 17
25 24 25 26 28 30 31 32 33 35 35 36 35 35 34 34 35 33 31 31 31 31 31 31 30 27 23 20 19 18 16 14 14 13 15 15 16 16 17 17 17 18 19 20
24 24 25 26 26 26 28 29 31 33 34 35 34 34 35 36 35 33 32 33 34 33 35 33 32 26 22 19 16 15 13 13 14 14 14 15 15 16 16 16 16 18 19 19
16 17 18 20 23 25 28 30 32 34 35 36 37 37 37 37 37 36 37 39 37 35 32 30 26 22 17 15 13 12 12 13 13 12 13 14 14 14 14 15 16 18 19 19
12 15 18 21 23 27 29 31 34 34 33 34 34 33 32 32 33 33 34 36 34 34 31 25 21 17 14 12 10 11 11 11 9 12 11 12 12 13 14 15 16 17 19 19
14 16 18 20 24 27 32 32 31 31 29 31 30 32 33 32 32 35 34 32 29 28 24 20 16 14 12 10 8 9 7 8 9 10 10 10 11 12 14 15 16 18 19 19
14 16 20 23 25 28 27 28 28 27 27 26 29 30 33 36 34 32 33 34 30 22 21 17 15 14 12 8 5 6 7 7 8 8 9 9 11 13 14 15 17 17 18 19
13 18 21 24 25 26 27 28 26 25 26 27 27 31 33 34 30 30 27 25 25 21 18 16 13 10 7 2 3 5 5 6 7 8 8 10 12 13 15 16 17 18 18 18
15 19 22 25 27 27 26 26 25 26 27 26 30 30 29 29 28 28 28 23 21 17 16 13 10 6 4 2 4 5 5 6 7 8 10 11 12 14 16 16 17 18 18 19
22 24 26 26 26 26 27 27 25 24 24 28 26 24 24 25 26 23 24 22 18 13 15 11 7 5 4 5 5 6 6 7 8 10 11 12 14 15 16 17 18 18 19 20
21 21 22 23 25 26 26 26 25 25 27 25 22 21 22 23 23 23 21 19 15 12 13 9 7 5 6 7 7 7 7 8 9 10 12 14 15 16 16 17 18 18 20 21
19 21 23 26 26 25 23 23 29 28 24 23 21 21 21 21 21 21 19 15 12 14 13 10 9 7 8 7 7 8 8 9 10 12 13 14 15 16 17 17 18 19 21 22
22 24 25 27 27 25 23 24 27 24 22 23 21 20 20 21 21 19 16 13 12 14 14 13 9 7 7 8 8 9 9 11 12 13 14 15 16 17 17 18 19 20 21 23
Wind_Direction
297 297 300 291 286 283 282 286 290 298 299 308 313 313 317 323 326 327 269 221 214 219 224 222 222 221 245 253 286 316 328 331 341 347 350 351 351 350 351 350 348 348 349 349
282 289 287 284 283 282 282 285 287 293 298 300 315 317 321 325 327 327 313 251 231 225 220 219 229 236 244 260 269 315 321 331 339 343 345 346 346 346 346 346 346 346 346 346
282 287 288 284 283 282 282 286 291 292 299 307 308 315 321 326 329 329 327 305 245 228 221 225 234 238 252 256 286 304 316 329 334 338 339 341 342 343 343 343 343 343 344 345
282 289 284 291 299 299 295 293 293 300 305 310 312 314 317 318 319 323 329 325 306 263 241 231 236 246 251 266 285 300 311 322 329 332 335 337 338 338 340 341 340 341 342 343
281 281 286 294 299 307 308 305 309 306 312 319 323 325 335 332 327 324 326 328 322 305 274 246 245 253 242 268 284 298 306 315 322 328 331 333 334 335 338 339 338 340 342 342
282 284 286 300 315 322 320 301 309 318 321 326 329 327 335 333 332 330 331 332 332 330 316 287 282 232 256 274 287 296 304 313 321 326 328 330 332 334 337 337 338 340 340 340
281 286 291 298 306 317 304 306 328 325 325 326 322 323 322 326 329 331 333 337 344 343 333 319 299 266 277 286 290 302 311 315 320 324 327 330 332 335 336 336 339 338 338 339
283 285 286 294 296 304 315 322 320 319 321 321 321 322 324 325 326 328 330 333 336 335 328 322 303 292 293 290 300 306 310 315 318 323 327 331 332 334 335 336 337 336 337 338
292 296 310 307 311 300 312 315 317 314 313 312 314 316 319 321 324 324 319 319 320 319 317 314 301 294 294 298 301 304 309 314 319 323 326 329 330 332 332 336 336 336 337 338
297 296 303 301 302 313 313 311 312 312 310 311 312 314 315 316 317 320 314 306 306 306 303 301 298 292 294 299 296 297 305 309 317 319 324 326 330 331 332 333 334 336 336 337
289 295 304 303 304 305 305 306 306 309 312 313 312 311 312 312 311 315 313 305 300 298 297 297 297 296 296 293 288 291 299 306 310 319 318 322 325 329 331 333 335 334 336 338
293 296 295 298 303 305 305 308 310 310 309 310 309 308 310 308 310 311 311 306 299 297 298 297 295 295 295 291 285 289 293 305 305 314 316 319 324 329 333 334 338 335 334 334
291 295 296 299 302 306 305 307 307 306 308 308 311 311 310 310 312 314 313 309 302 298 298 299 298 293 295 289 286 284 289 300 304 308 310 317 323 327 328 335 334 332 332 332
291 297 297 301 303 307 307 306 307 309 310 310 310 311 310 310 310 311 311 309 307 304 301 300 299 296 294 288 288 287 286 294 301 302 305 316 320 326 329 330 332 335 333 335
291 296 299 304 306 307 308 309 308 308 310 310 311 310 311 309 309 310 312 310 308 306 305 303 301 299 294 292 286 286 287 290 298 301 304 314 319 324 328 331 332 335 339 341
294 297 303 305 308 310 311 312 311 311 311 311 310 308 307 307 306 306 307 307 304 302 303 301 299 297 294 292 287 287 281 284 289 293 310 315 319 323 327 330 332 334 336 339
294 297 304 309 315 318 319 319 318 317 316 313 311 309 307 307 306 305 304 303 301 299 300 301 300 298 293 287 286 287 280 284 287 299 309 315 319 322 326 329 332 334 336 340
300 308 315 319 321 323 322 322 321 320 318 318 314 311 306 304 302 301 303 302 301 300 301 303 304 302 294 289 286 286 285 291 292 298 310 314 320 325 328 329 332 335 337 340
317 318 320 320 322 324 324 323 321 322 326 323 321 319 316 313 310 308 306 304 303 303 304 306 304 302 294 286 277 285 289 295 299 307 310 317 322 325 328 331 333 335 338 340
316 320 323 325 326 326 325 327 328 326 330 329 327 321 318 316 315 310 309 308 307 307 311 312 309 304 299 288 277 292 292 297 305 312 315 320 324 327 330 332 334 337 339 339
319 324 324 325 327 329 332 332 332 328 329 329 327 324 318 313 314 315 311 308 311 314 311 312 311 310 304 294 266 299 297 304 315 318 323 323 329 331 334 336 337 338 339 339
323 324 324 326 326 328 329 330 330 330 329 329 328 323 319 318 319 318 318 316 320 321 321 319 317 315 316 286 257 312 316 320 324 329 332 333 334 335 336 337 338 339 340 341
316 321 323 323 323 325 328 328 328 326 324 325 321 321 322 323 325 324 322 327 325 326 327 328 330 339 359 14 338 334 336 336 337 338 338 338 338 339 339 340 340 342 342 341
314 317 318 321 322 323 323 323 326 327 325 320 321 326 329 330 330 332 330 333 337 346 336 349 1 16 27 0 351 344 344 347 346 343 342 342 342 342 342 342 343 344 343 342
316 321 323 324 324 323 322 321 321 319 316 319 327 331 332 333 334 336 339 341 351 359 350 4 16 21 357 351 350 353 354 353 347 346 345 344 344 344 344 345 345 344 344 343
317 319 321 322 323 324 324 322 309 308 317 321 325 330 333 334 335 336 337 348 0 352 354 1 359 2 357 360 357 357 355 351 350 347 347 347 347 346 346 346 346 345 344 344
313 315 316 317 316 321 319 315 310 314 316 316 322 330 332 332 330 338 346 353 355 351 347 348 356 4 359 359 359 357 354 351 351 351 350 349 349 348 349 348 347 347 346 345